Location: Moscow
(55.7500°N, 37.5830°E)
Time: 21:55:43
(UTC+03:00)

Vanguard 1 - Visible Passes

Search period start: 30 November 2021 00:00
Search period end: 10 December 2021 00:00
Orbit: 653 x 3830 km, 34.3° (Epoch: 30 November)

Date Brightness Start Highest point End Pass type
(mag) Time Alt. Az. Time Alt. Az. Time Alt. Az.
30 Nov 13.8 00:32:21 15° ESE 00:32:21 15° ESE 00:35:09 10° ESE visible
30 Nov 13.1 02:45:02 34° SSE 02:45:02 34° SSE 02:57:29 10° ESE visible
30 Nov 13.0 04:57:43 26° SW 05:04:58 32° SSW 05:16:32 10° SE visible
30 Nov 13.3 07:15:16 10° WSW 07:24:35 17° SW 07:31:39 10° S visible
01 Dec 13.7 00:51:56 19° ESE 00:51:56 19° ESE 00:56:35 10° ESE visible
01 Dec 13.1 03:04:37 36° S 03:04:37 36° S 03:18:08 10° ESE visible
01 Dec 13.0 05:17:19 23° WSW 05:25:20 30° SSW 05:36:36 10° SSE visible
01 Dec 13.4 07:37:52 10° WSW 07:44:26 14° SW 07:49:51 10° SSW visible
02 Dec 13.6 01:11:31 22° ESE 01:11:31 22° ESE 01:17:44 10° ESE visible
02 Dec 13.0 03:24:13 37° S 03:24:19 37° S 03:38:39 10° SE visible
02 Dec 13.1 05:36:54 20° WSW 05:45:34 28° SSW 05:56:27 10° SSE visible
03 Dec 13.5 01:31:06 26° SE 01:31:06 26° SE 01:38:40 10° ESE visible
03 Dec 13.0 03:43:48 37° SSW 03:44:51 37° S 03:59:03 10° SE visible
03 Dec 13.2 05:56:29 17° WSW 06:05:42 24° SW 06:16:01 10° S visible
04 Dec 13.4 01:50:42 29° SE 01:50:42 29° SE 01:59:28 10° ESE visible
04 Dec 13.0 04:03:23 35° SSW 04:05:19 36° SSW 04:19:18 10° SE visible
04 Dec 13.3 06:16:05 14° WSW 06:25:42 21° SW 06:35:11 10° S visible
04 Dec 14.0 23:57:36 10° E 23:57:36 10° E 23:57:38 10° E visible
05 Dec 13.3 02:10:18 32° SE 02:10:18 32° SE 02:20:08 10° ESE visible
05 Dec 13.1 04:22:59 32° SW 04:25:42 33° SSW 04:39:22 10° SE visible
05 Dec 13.4 06:35:41 10° WSW 06:45:34 17° SW 06:53:43 10° SSW visible
06 Dec 13.9 00:17:13 13° ESE 00:17:13 13° ESE 00:18:49 10° ESE visible
06 Dec 13.2 02:29:54 34° SSE 02:29:54 34° SSE 02:40:41 10° ESE visible
06 Dec 13.2 04:42:37 29° SW 04:45:59 31° SSW 04:59:13 10° SSE visible
06 Dec 13.6 06:58:44 10° WSW 07:05:18 13° SW 07:11:00 10° SSW visible
07 Dec 13.9 00:36:50 16° ESE 00:36:50 16° ESE 00:39:48 10° ESE visible
07 Dec 13.2 02:49:32 35° SSE 02:49:32 35° SSE 03:01:06 10° SE visible
07 Dec 13.3 05:02:15 26° SW 05:06:09 27° SW 05:18:48 10° SSE visible
08 Dec 13.8 00:56:30 19° ESE 00:56:30 19° ESE 01:00:38 10° ESE visible
08 Dec 13.2 03:09:12 35° S 03:09:12 35° S 03:21:21 10° SE visible
08 Dec 13.4 05:21:54 22° SW 05:26:12 23° SW 05:38:00 10° S visible
08 Dec14.023:03:28E23:03:28E22:22:41SSWvisible
09 Dec 13.7 01:16:10 21° SE 01:16:10 21° SE 01:21:20 10° ESE visible
09 Dec 13.2 03:28:52 34° S 03:28:52 34° S 03:41:25 10° SE visible
09 Dec 13.5 05:41:35 18° WSW 05:46:06 19° SW 05:56:38 10° S visible
09 Dec14.023:23:11E23:23:11E22:42:32SSWvisible
